﻿_id,日時,平均風速(m/s),平均風向,最大瞬間風速(m/s),最大風速時風向,気温(℃),湿度(%),10分間移動積算雨量(mm),1時間移動積算雨量(mm),日雨量(mm),累計雨量(mm)
1,2021-05-17T00:00:00,7.5,南,13.6,南東,24.9,82.4,0,0,7,8
2,2021-05-17T00:01:00,7.7,南南東,13.6,南東,24.9,82.4,0,0,0,8
3,2021-05-17T00:02:00,7.7,南南東,13.6,南東,24.9,82.4,0,0,0,8
4,2021-05-17T00:03:00,7.7,南南東,13.6,南東,24.9,82.4,0,0,0,8
5,2021-05-17T00:04:00,7.8,南南東,13.6,南東,24.9,82.5,0,0,0,8
6,2021-05-17T00:05:00,7.9,南南東,13.6,南東,24.9,82.6,0,0,0,8
7,2021-05-17T00:06:00,8.1,南南東,13.6,南東,24.9,82.5,0,0,0,8
8,2021-05-17T00:07:00,8.1,南南東,13.6,南東,24.8,82.5,0,0,0,8
9,2021-05-17T00:08:00,8.1,南南東,13.6,南東,24.8,82.7,0,0,0,8
10,2021-05-17T00:09:00,8.1,南南東,13.6,南東,24.9,82.8,0,0,0,8
11,2021-05-17T00:10:00,7.8,南南東,13.6,南南東,24.9,82.5,0,0,0,8
12,2021-05-17T00:11:00,7.6,南南東,13.6,南南東,24.8,82.5,0,0,0,8
13,2021-05-17T00:12:00,7.5,南,13.6,南南東,24.8,82.7,0,0,0,8
14,2021-05-17T00:13:00,7.4,南,13.6,南南東,24.8,82.7,0,0,0,8
15,2021-05-17T00:14:00,7.5,南,13.6,南南東,24.9,82.9,0,0,0,8
16,2021-05-17T00:15:00,7.6,南,13.6,南南東,24.9,82.7,0,0,0,8
17,2021-05-17T00:16:00,7.6,南,13.6,南南東,24.9,82.7,0,0,0,8
18,2021-05-17T00:17:00,7.8,南,13.6,南南東,24.9,82.6,0,0,0,8
19,2021-05-17T00:18:00,7.9,南,13.6,南南東,24.9,82.5,0,0,0,8
20,2021-05-17T00:19:00,7.8,南,13.4,南東,24.8,82.5,0,0,0,8
21,2021-05-17T00:20:00,7.8,南,13.4,南東,24.8,82.6,0,0,0,8
22,2021-05-17T00:21:00,8,南,13.5,南南東,24.8,82.8,0,0,0,8
23,2021-05-17T00:22:00,8.3,南,14.5,南南東,24.9,82.9,0,0,0,8
24,2021-05-17T00:23:00,8.6,南,14.5,南南東,24.9,82.7,0,0,0,8
25,2021-05-17T00:24:00,8.7,南南東,14.5,南南東,24.9,82.7,0,0,0,8
26,2021-05-17T00:25:00,8.7,南南東,14.5,南南東,24.9,82.4,0,0,0,8
27,2021-05-17T00:26:00,8.5,南,14.5,南南東,24.8,82.5,0,0,0,8
28,2021-05-17T00:27:00,8.4,南,14.5,南南東,24.8,82.7,0,0,0,8
29,2021-05-17T00:28:00,8.4,南,14.5,南南東,24.8,82.9,0,0,0,8
30,2021-05-17T00:29:00,8.4,南,14.5,南南東,24.9,82.8,0,0,0,8
31,2021-05-17T00:30:00,8.3,南,14.5,南南東,24.9,82.6,0,0,0,8
32,2021-05-17T00:31:00,8.4,南,14.5,南南東,24.9,82.5,0,0,0,8
33,2021-05-17T00:32:00,8.2,南,14.2,南南東,24.9,82.6,0,0,0,8
34,2021-05-17T00:33:00,8,南,14.2,南南東,24.9,82.7,0,0,0,8
35,2021-05-17T00:34:00,7.9,南,13.6,南東,24.9,82.4,0,0,0,8
36,2021-05-17T00:35:00,8,南,13.1,南南東,24.8,82.6,0,0,0,8
37,2021-05-17T00:36:00,8.3,南,17,南南西,24.8,82.8,0,0,0,8
38,2021-05-17T00:37:00,8.5,南,17,南南西,24.9,83,0,0,0,8
39,2021-05-17T00:38:00,8.8,南,17,南南西,24.9,82.7,0,0,0,8
40,2021-05-17T00:39:00,8.8,南,17,南南西,25,82.4,0,0,0,8
41,2021-05-17T00:40:00,9.3,南,17,南南西,24.9,82.3,0,0,0,8
42,2021-05-17T00:41:00,9.5,南,17,南南西,24.9,82.4,0,0,0,8
43,2021-05-17T00:42:00,9.9,南,17,南南西,24.9,82.5,0,0,0,8
44,2021-05-17T00:43:00,10.2,南,17,南南西,24.9,82.4,0,0,0,8
45,2021-05-17T00:44:00,10.4,南,17,南南西,24.9,82.4,0,0,0,8
46,2021-05-17T00:45:00,10.5,南,17,南南西,24.9,82.7,0,0,0,8
47,2021-05-17T00:46:00,10.5,南,16.3,南南西,24.9,82.6,0,0,0,8
48,2021-05-17T00:47:00,10.8,南,18.3,南,24.8,82.8,0,0,0,8
49,2021-05-17T00:48:00,10.9,南,18.3,南,24.8,83.1,0,0,0,8
50,2021-05-17T00:49:00,11.2,南,18.3,南,24.7,83.2,0,0,0,8
51,2021-05-17T00:50:00,11.1,南,18.3,南,24.7,83.4,0,0,0,8
52,2021-05-17T00:51:00,10.9,南,18.3,南,24.6,83.6,0,0,0,8
53,2021-05-17T00:52:00,10.5,南,18.3,南,24.5,84,0,0,0,8
54,2021-05-17T00:53:00,10.1,南,18.3,南,24.5,84.5,0,0,0,8
55,2021-05-17T00:54:00,9.7,南,18.3,南,24.5,85,0,0,0,8
56,2021-05-17T00:55:00,9.4,南,18.3,南,24.5,85.1,0,0,0,8
57,2021-05-17T00:56:00,9.3,南,18.3,南,24.5,85.2,0,0,0,8
58,2021-05-17T00:57:00,8.8,南,16.4,南,24.5,85.2,0,0,0,8
59,2021-05-17T00:58:00,8.3,南,16.4,南,24.7,85.2,0,0,0,8
60,2021-05-17T00:59:00,7.7,南,15.8,南,24.6,84.9,0,0,0,8
61,2021-05-17T01:00:00,7.6,南,12.9,南,24.6,84.7,0,0,0,8
62,2021-05-17T01:01:00,7.7,南,15,南南東,24.7,84.8,0,0,0,8
63,2021-05-17T01:02:00,7.8,南,15,南南東,24.8,84.5,0,0,0,8
64,2021-05-17T01:03:00,8,南,15,南南東,24.7,84,0,0,0,8
65,2021-05-17T01:04:00,7.9,南,15,南南東,24.7,84,0,0,0,8
66,2021-05-17T01:05:00,7.9,南,15,南南東,24.6,84,0,0,0,8
67,2021-05-17T01:06:00,7.7,南,15,南南東,24.6,84.3,0,0,0,8
68,2021-05-17T01:07:00,7.7,南,15,南南東,24.7,84.4,0,0,0,8
69,2021-05-17T01:08:00,7.8,南,15,南南東,24.7,84.3,0,0,0,8
70,2021-05-17T01:09:00,7.9,南,15,南南東,24.7,84.2,0,0,0,8
71,2021-05-17T01:10:00,8.1,南,15,南南東,24.7,84.2,0,0,0,8
72,2021-05-17T01:11:00,7.8,南,13.9,南西,24.7,84.1,0,0,0,8
73,2021-05-17T01:12:00,7.9,南,13.9,南西,24.7,84.2,0,0,0,8
74,2021-05-17T01:13:00,7.8,南,13.9,南西,24.7,84.1,0,0,0,8
75,2021-05-17T01:14:00,7.9,南,13.9,南西,24.7,84,0,0,0,8
76,2021-05-17T01:15:00,8,南,13.9,南西,24.7,84,0,0,0,8
77,2021-05-17T01:16:00,7.9,南,13.9,南西,24.7,84,0,0,0,8
78,2021-05-17T01:17:00,7.8,南,13.9,南西,24.8,84.2,0,0,0,8
79,2021-05-17T01:18:00,7.8,南,13.9,南西,24.8,84,0,0,0,8
80,2021-05-17T01:19:00,7.7,南,13.9,南西,24.8,83.8,0,0,0,8
81,2021-05-17T01:20:00,7.4,南,12.1,南南西,24.8,83.6,0,0,0,8
82,2021-05-17T01:21:00,7.4,南,12.1,南南西,24.7,83.7,0,0,0,8
83,2021-05-17T01:22:00,7.4,南,13.1,南,24.7,83.8,0,0,0,8
84,2021-05-17T01:23:00,7.4,南,13.3,南,24.8,83.9,0,0,0,8
85,2021-05-17T01:24:00,7.7,南,13.3,南,24.9,83.6,0,0,0,8
86,2021-05-17T01:25:00,8,南,13.8,南,24.9,83.4,0,0,0,8
87,2021-05-17T01:26:00,8.3,南,13.8,南,24.9,83.2,0,0,0,8
88,2021-05-17T01:27:00,8.4,南,13.8,南,24.9,83.1,0,0,0,8
89,2021-05-17T01:28:00,8.7,南,13.8,南,24.9,83,0,0,0,8
90,2021-05-17T01:29:00,9,南,14.8,南南西,24.8,83,0,0,0,8
91,2021-05-17T01:30:00,9.1,南,14.8,南南西,24.9,83.2,0,0,0,8
92,2021-05-17T01:31:00,9.2,南,14.8,南南西,24.8,83.2,0,0,0,8
93,2021-05-17T01:32:00,9.1,南,14.8,南南西,24.8,83.3,0,0,0,8
94,2021-05-17T01:33:00,9.2,南,14.8,南南西,24.8,83.5,0,0,0,8
95,2021-05-17T01:34:00,8.9,南,14.8,南南西,24.8,83.6,0,0,0,8
96,2021-05-17T01:35:00,8.7,南,14.8,南南西,24.8,83.7,0,0,0,8
97,2021-05-17T01:36:00,8.5,南,14.8,南南西,24.7,83.7,0,0,0,8
98,2021-05-17T01:37:00,8.5,南,14.8,南南西,24.7,83.9,0,0,0,8
99,2021-05-17T01:38:00,8.3,南,14.8,南南西,24.8,83.9,0,0,0,8
100,2021-05-17T01:39:00,8.1,南,14.3,南東,24.7,83.9,0,0,0,8
101,2021-05-17T01:40:00,8,南,14.3,南東,24.6,84.2,0,0,0,8
102,2021-05-17T01:41:00,7.8,南,14.3,南東,24.6,84.4,0,0,0,8
103,2021-05-17T01:42:00,7.5,南,14.3,南東,24.4,84.6,0,0,0,8
104,2021-05-17T01:43:00,7.3,南,12.6,南,24.4,85.3,0,0,0,8
105,2021-05-17T01:44:00,7.3,南,13.1,南南西,24.4,85.5,0,0,0,8
106,2021-05-17T01:45:00,7.4,南,13.1,南南西,24.4,85.7,0,0,0,8
107,2021-05-17T01:46:00,7.4,南,13.1,南南西,24.4,85.9,0,0,0,8
108,2021-05-17T01:47:00,7.3,南,13.1,南南西,24.4,86.2,0,0,0,8
109,2021-05-17T01:48:00,7.4,南,13.1,南南西,24.4,86.3,0,0,0,8
110,2021-05-17T01:49:00,7.3,南,13.1,南南西,24.3,86.3,0,0,0,8
111,2021-05-17T01:50:00,7.4,南,13.1,南南西,24.3,86.5,0,0,0,8
112,2021-05-17T01:51:00,7.4,南,13.1,南南西,24.2,86.6,0,0,0,8
113,2021-05-17T01:52:00,7.9,南,13.1,南南西,24.2,86.9,0,0,0,8
114,2021-05-17T01:53:00,8.1,南,13.1,南南西,24.2,87.1,0,0,0,8
115,2021-05-17T01:54:00,8.1,南,13.1,南南西,24.2,87,0,0,0,8
116,2021-05-17T01:55:00,8,南,13.1,南南西,24.2,87.2,0,0,0,8
117,2021-05-17T01:56:00,8.1,南,13.1,南南西,24.2,87.3,0,0,0,8
118,2021-05-17T01:57:00,8.2,南,13.1,南南西,24.2,87.2,0,0,0,8
119,2021-05-17T01:58:00,8.1,南,13.1,南南西,24.2,87.1,0,0,0,8
120,2021-05-17T01:59:00,7.9,南,13.1,南南西,24.1,87.1,0.5,0.5,0.5,8.5
121,2021-05-17T02:00:00,7.9,南,13.1,南南西,24,87.3,0.5,0.5,0.5,8.5
122,2021-05-17T02:01:00,8.1,南,13.1,南南西,24.1,87.8,0.5,0.5,0.5,8.5
123,2021-05-17T02:02:00,7.8,南,12.4,南,24.1,87.8,0.5,0.5,0.5,8.5
124,2021-05-17T02:03:00,7.5,南,12.4,南,24,87.8,0.5,0.5,0.5,8.5
125,2021-05-17T02:04:00,7.4,南,12.4,南,24.2,88.2,0.5,0.5,0.5,8.5
126,2021-05-17T02:05:00,7.4,南,12.4,南,24.2,88.1,0.5,0.5,0.5,8.5
127,2021-05-17T02:06:00,7.2,南,12.4,南,24.2,87.7,0.5,0.5,0.5,8.5
128,2021-05-17T02:07:00,7,南,12.4,南,24.2,87.4,0.5,0.5,0.5,8.5
129,2021-05-17T02:08:00,6.9,南,12.4,南,24.2,87.1,0.5,0.5,0.5,8.5
130,2021-05-17T02:09:00,7.1,南,12.4,南,24.2,87,0,0.5,0.5,8.5
131,2021-05-17T02:10:00,7,南,11.6,南,24.2,87.2,0,0.5,0.5,8.5
132,2021-05-17T02:11:00,6.8,南,11.3,南東,24.1,87.2,0,0.5,0.5,8.5
133,2021-05-17T02:12:00,6.8,南,11.3,南東,24,87.4,0,0.5,0.5,8.5
134,2021-05-17T02:13:00,6.9,南,11.5,南西,24.1,87.9,0,0.5,0.5,8.5
135,2021-05-17T02:14:00,6.9,南,11.5,南西,24.1,88,0,0.5,0.5,8.5
136,2021-05-17T02:15:00,6.9,南,11.5,南西,24.1,87.8,0,0.5,0.5,8.5
137,2021-05-17T02:16:00,7,南,11.5,南西,24.1,87.8,0,0.5,0.5,8.5
138,2021-05-17T02:17:00,7.2,南,13.1,南南東,24.1,87.8,0,0.5,0.5,8.5
139,2021-05-17T02:18:00,7.4,南,13.1,南南東,24,87.9,0,0.5,0.5,8.5
140,2021-05-17T02:19:00,7.4,南,13.1,南南東,24,88,0,0.5,0.5,8.5
141,2021-05-17T02:20:00,7.2,南,13.1,南南東,23.9,88.2,0,0.5,0.5,8.5
142,2021-05-17T02:21:00,7.2,南,13.1,南南東,23.9,88.5,0,0.5,0.5,8.5
143,2021-05-17T02:22:00,7.1,南,13.1,南南東,24,88.6,0,0.5,0.5,8.5
144,2021-05-17T02:23:00,6.9,南南東,13.1,南南東,24,88.5,0,0.5,0.5,8.5
145,2021-05-17T02:24:00,6.7,南南東,13.1,南南東,24,88.4,0,0.5,0.5,8.5
146,2021-05-17T02:25:00,6.6,南南東,13.1,南南東,23.9,88.5,0,0.5,0.5,8.5
147,2021-05-17T02:26:00,6.4,南南東,13.1,南南東,24.1,88.7,0,0.5,0.5,8.5
148,2021-05-17T02:27:00,6.1,南,10.4,南南西,24.1,88.3,0,0.5,0.5,8.5
149,2021-05-17T02:28:00,5.9,南南東,10.2,南南西,24,88.1,0,0.5,0.5,8.5
150,2021-05-17T02:29:00,6.2,南,11.6,南南西,24,88.2,0,0.5,0.5,8.5
151,2021-05-17T02:30:00,6.4,南,11.6,南南西,24.1,88.2,0,0.5,0.5,8.5
152,2021-05-17T02:31:00,6.7,南,12.3,南南西,24.1,87.9,0,0.5,0.5,8.5
153,2021-05-17T02:32:00,6.8,南,12.3,南南西,24,87.7,0,0.5,0.5,8.5
154,2021-05-17T02:33:00,7.1,南,14.2,南西,24.1,87.7,0,0.5,0.5,8.5
155,2021-05-17T02:34:00,7.5,南,14.2,南西,24.1,87.7,0.5,1,1,9
156,2021-05-17T02:35:00,7.9,南,14.6,南南西,24.3,87.5,0.5,1,1,9
157,2021-05-17T02:36:00,8.1,南,14.6,南南西,24.3,86.8,0.5,1,1,9
158,2021-05-17T02:37:00,8.2,南,14.6,南南西,24.2,86.4,0.5,1,1,9
159,2021-05-17T02:38:00,8.2,南,14.6,南南西,24.2,86.3,0.5,1,1,9
160,2021-05-17T02:39:00,8,南,14.6,南南西,24.2,86.6,0.5,1,1,9
161,2021-05-17T02:40:00,7.8,南,14.6,南南西,24.3,86.6,0.5,1,1,9
162,2021-05-17T02:41:00,7.4,南,14.6,南南西,24.2,86.4,0.5,1,1,9
163,2021-05-17T02:42:00,7.2,南,14.6,南南西,24.2,86.3,0.5,1,1,9
164,2021-05-17T02:43:00,7,南,14.6,南南西,24.2,86.3,0.5,1,1,9
165,2021-05-17T02:44:00,6.6,南,14.6,南南西,24.2,86.5,0,1,1,9
166,2021-05-17T02:45:00,6.4,南,13.9,南,24.2,86.5,0,1,1,9
167,2021-05-17T02:46:00,6,南南東,9.7,南南東,24.1,86.6,0,1,1,9
168,2021-05-17T02:47:00,5.9,南南東,9.7,南南東,24.1,86.6,0,1,1,9
169,2021-05-17T02:48:00,5.9,南南東,9.7,南南東,24.1,86.8,0,1,1,9
170,2021-05-17T02:49:00,5.7,南,9.3,南,24.1,87,0,1,1,9
171,2021-05-17T02:50:00,5.8,南,9.3,南,24.1,86.9,0,1,1,9
172,2021-05-17T02:51:00,5.8,南,9.3,南,24.1,86.9,0,1,1,9
173,2021-05-17T02:52:00,5.8,南,9.3,南,24.1,86.9,0,1,1,9
174,2021-05-17T02:53:00,5.8,南,9.5,南東,24.1,87,0,1,1,9
175,2021-05-17T02:54:00,5.7,南,9.5,南東,24.1,86.9,0,1,1,9
176,2021-05-17T02:55:00,5.5,南,9.5,南東,24.1,86.9,0,1,1,9
177,2021-05-17T02:56:00,5.4,南,9.5,南東,24.1,87,0,1,1,9
178,2021-05-17T02:57:00,5.5,南,9.5,南東,24.1,87.1,0,1,1,9
179,2021-05-17T02:58:00,5.5,南,9.5,南東,24.2,87.2,0,1,1,9
180,2021-05-17T02:59:00,5.6,南,9.5,南東,24.2,86.8,0,0.5,1,9
181,2021-05-17T03:00:00,5.4,南南東,9.5,南東,24.1,86.7,0,0.5,1,9
182,2021-05-17T03:01:00,5.4,南南東,9.5,南東,24.1,86.8,0,0.5,1,9
183,2021-05-17T03:02:00,5.4,南南東,10.6,南東,24.1,87,0,0.5,1,9
184,2021-05-17T03:03:00,5.5,南南東,12,南東,24,87.1,0,0.5,1,9
185,2021-05-17T03:04:00,5.7,南南東,12,南東,24,87.3,0,0.5,1,9
186,2021-05-17T03:05:00,5.7,南南東,12,南東,24,87.4,0,0.5,1,9
187,2021-05-17T03:06:00,5.8,南南東,12,南東,23.9,87.6,0,0.5,1,9
188,2021-05-17T03:07:00,5.7,南南東,12,南東,23.9,88,0,0.5,1,9
189,2021-05-17T03:08:00,5.8,南南東,12,南東,23.9,88.3,0,0.5,1,9
190,2021-05-17T03:09:00,5.5,南南東,12,南東,23.9,88.1,0,0.5,1,9
191,2021-05-17T03:10:00,5.6,南南東,12,南東,23.9,88.1,0,0.5,1,9
192,2021-05-17T03:11:00,5.4,南南東,12,南東,23.9,88.1,0,0.5,1,9
193,2021-05-17T03:12:00,5.3,南,12,南東,23.8,88.2,0,0.5,1,9
194,2021-05-17T03:13:00,5,南,10.5,南南東,23.8,88.5,0,0.5,1,9
195,2021-05-17T03:14:00,4.8,南,9.1,南南西,23.8,88.7,0,0.5,1,9
196,2021-05-17T03:15:00,4.7,南,9.1,南南西,23.8,89,0,0.5,1,9
197,2021-05-17T03:16:00,4.8,南,9.1,南南西,23.8,88.9,0,0.5,1,9
198,2021-05-17T03:17:00,4.6,南,9.1,南南西,23.8,89,0,0.5,1,9
199,2021-05-17T03:18:00,4.3,南,6.7,南,23.8,89.1,0,0.5,1,9
200,2021-05-17T03:19:00,4.2,南,6.7,南,23.7,89.2,0,0.5,1,9
201,2021-05-17T03:20:00,4.3,南,8.3,南,23.7,89.3,0,0.5,1,9
202,2021-05-17T03:21:00,4.5,南,8.3,南,23.7,89.5,0,0.5,1,9
203,2021-05-17T03:22:00,4.6,南,8.5,南西,23.7,89.7,0.5,1,1.5,9.5
204,2021-05-17T03:23:00,4.7,南,8.5,南西,23.8,89.9,0.5,1,1.5,9.5
205,2021-05-17T03:24:00,4.8,南,8.5,南西,23.8,89.7,0.5,1,1.5,9.5
206,2021-05-17T03:25:00,4.8,南,8.5,南西,23.7,89.2,0.5,1,1.5,9.5
207,2021-05-17T03:26:00,4.8,南,8.5,南西,23.7,89.5,0.5,1,1.5,9.5
208,2021-05-17T03:27:00,4.9,南,8.5,南西,23.9,89.8,0.5,1,1.5,9.5
209,2021-05-17T03:28:00,5,南,8.5,南西,23.9,89.4,0.5,1,1.5,9.5
210,2021-05-17T03:29:00,5,南,8.5,南西,23.8,89.1,0.5,1,1.5,9.5
211,2021-05-17T03:30:00,4.8,南,8.5,南西,23.7,89,0.5,1,1.5,9.5
212,2021-05-17T03:31:00,4.6,南,8.5,南西,23.6,89.2,0.5,1,1.5,9.5
213,2021-05-17T03:32:00,4.4,南,8,南南西,23.6,89.5,0,1,1.5,9.5
214,2021-05-17T03:33:00,4.2,南,8,南南西,23.6,90,0,1,1.5,9.5
215,2021-05-17T03:34:00,4,南,7.3,南南西,23.6,90.2,0,0.5,1.5,9.5
216,2021-05-17T03:35:00,4,南南東,7.3,南南西,23.6,90.5,0.5,1,2,10
217,2021-05-17T03:36:00,3.9,南南東,6.6,南南東,23.7,90.7,0.5,1,2,10
218,2021-05-17T03:37:00,3.7,南,6.3,南,23.7,90.6,0.5,1,2,10
219,2021-05-17T03:38:00,3.6,南,6.3,南,23.7,90.4,0.5,1,2,10
220,2021-05-17T03:39:00,3.6,南,6.3,南,23.6,90.3,0.5,1,2,10
221,2021-05-17T03:40:00,3.6,南,6.3,南,23.5,90.2,1,1.5,2.5,10.5
222,2021-05-17T03:41:00,3.7,南,6.3,南,23.5,90.6,1,1.5,2.5,10.5
223,2021-05-17T03:42:00,3.7,南,6.3,南,23.5,90.9,1,1.5,2.5,10.5
224,2021-05-17T03:43:00,3.8,南,6.3,南,23.4,91,1,1.5,2.5,10.5
225,2021-05-17T03:44:00,3.7,南,6.3,南,23.4,91.2,1,1.5,2.5,10.5
226,2021-05-17T03:45:00,3.7,南,6.3,南,23.3,91.5,1,2,3,11
227,2021-05-17T03:46:00,3.5,南,6.3,南東,23.3,91.9,1,2,3,11
228,2021-05-17T03:47:00,3.4,南,6.3,南東,23.3,92,1,2,3,11
229,2021-05-17T03:48:00,3.4,南,6.3,南東,23.3,92.2,1,2,3,11
230,2021-05-17T03:49:00,3.4,南,6.3,南東,23.2,92.4,1,2,3,11
231,2021-05-17T03:50:00,3.3,南,6.3,南東,23.3,92.7,0.5,2,3,11
232,2021-05-17T03:51:00,3.2,南,6.3,南東,23.4,92.9,0.5,2,3,11
233,2021-05-17T03:52:00,3.2,南,5.5,南南西,23.3,92.7,0.5,2,3,11
234,2021-05-17T03:53:00,3.2,南,5.5,南南西,23.2,92.6,0.5,2,3,11
235,2021-05-17T03:54:00,3.2,南,5.5,南南西,23,92.7,0.5,2,3,11
236,2021-05-17T03:55:00,3.1,南,5.3,南東,23,93,0,2,3,11
237,2021-05-17T03:56:00,3.2,南,5.3,南東,23,93.6,0.5,2.5,3.5,11.5
238,2021-05-17T03:57:00,3.2,南,5.3,南東,23.1,94,0.5,2.5,3.5,11.5
239,2021-05-17T03:58:00,3.3,南,5.3,南東,23.1,94.2,0.5,2.5,3.5,11.5
240,2021-05-17T03:59:00,3.4,南,5.6,南南東,23.2,94.3,0.5,2.5,3.5,11.5
241,2021-05-17T04:00:00,3.4,南,5.6,南南東,23.1,94.1,0.5,2.5,3.5,11.5
242,2021-05-17T04:01:00,3.5,南,5.6,南南東,23.1,94.2,0.5,2.5,3.5,11.5
243,2021-05-17T04:02:00,3.4,南南東,5.6,南南東,23.1,94.3,0.5,2.5,3.5,11.5
244,2021-05-17T04:03:00,3.3,南南東,5.6,南南東,23.1,94.4,1,3,4,12
245,2021-05-17T04:04:00,3.3,南南東,5.6,南南東,23,94.3,1,3,4,12
246,2021-05-17T04:05:00,3.3,南南東,5.6,南南東,23,94.4,1,3,4,12
247,2021-05-17T04:06:00,3.3,南南東,5.6,南南東,23.1,94.6,0.5,3,4,12
248,2021-05-17T04:07:00,3.2,南南東,5.6,南南東,23.1,94.6,0.5,3,4,12
249,2021-05-17T04:08:00,3.2,南,5.6,南南東,23.1,94.6,0.5,3,4,12
250,2021-05-17T04:09:00,3.2,南,5.9,南,23.1,94.3,1,3.5,4.5,12.5
251,2021-05-17T04:10:00,3.2,南,5.9,南,23.2,94.4,1,3.5,4.5,12.5
252,2021-05-17T04:11:00,3.2,南,5.9,南,23.3,94.4,1,3.5,4.5,12.5
253,2021-05-17T04:12:00,3.4,南,7.4,南南西,23.2,94,1,3.5,4.5,12.5
254,2021-05-17T04:13:00,3.7,南,7.4,南南西,23.2,93.8,0.5,3.5,4.5,12.5
255,2021-05-17T04:14:00,3.8,南,7.4,南南西,23.2,93.8,0.5,3.5,4.5,12.5
256,2021-05-17T04:15:00,3.8,南,7.4,南南西,23.1,93.8,0.5,3.5,4.5,12.5
257,2021-05-17T04:16:00,4.1,南,7.4,南南西,23.2,93.7,0.5,3.5,4.5,12.5
258,2021-05-17T04:17:00,4.3,南,7.4,南南西,23.2,93.7,0.5,3.5,4.5,12.5
259,2021-05-17T04:18:00,4.6,南,8.6,南南西,23.2,93.7,0.5,3.5,4.5,12.5
260,2021-05-17T04:19:00,4.7,南,8.6,南南西,23.3,93.7,0,3.5,4.5,12.5
261,2021-05-17T04:20:00,4.8,南,8.6,南南西,23.4,93.4,0,3.5,4.5,12.5
262,2021-05-17T04:21:00,4.9,南,8.6,南南西,23.3,92.9,0,3.5,4.5,12.5
263,2021-05-17T04:22:00,4.8,南,8.6,南南西,23.2,92.8,0,3,4.5,12.5
264,2021-05-17T04:23:00,4.6,南,8.6,南南西,23.2,92.8,0.5,3.5,5,13
265,2021-05-17T04:24:00,4.5,南,8.6,南南西,23.1,92.9,0.5,3.5,5,13
266,2021-05-17T04:25:00,4.5,南,8.6,南南西,23.1,93.1,0.5,3.5,5,13
267,2021-05-17T04:26:00,4.3,南,8.6,南南西,23.2,93.4,0.5,3.5,5,13
268,2021-05-17T04:27:00,4.2,南,8.6,南南西,23.2,93.5,0.5,3.5,5,13
269,2021-05-17T04:28:00,4,南南東,6.8,南南西,23.2,93.5,0.5,3.5,5,13
270,2021-05-17T04:29:00,3.9,南南東,6.6,南,23.3,93.5,0.5,3.5,5,13
271,2021-05-17T04:30:00,3.8,南南東,6.6,南,23.3,93.3,0.5,3.5,5,13
272,2021-05-17T04:31:00,3.8,南南東,6.6,南,23.3,92.9,0.5,3.5,5,13
273,2021-05-17T04:32:00,3.9,南南東,6.6,南,23.3,92.7,0.5,3.5,5,13
274,2021-05-17T04:33:00,3.9,南,6.6,南,23.2,92.5,0,3.5,5,13
275,2021-05-17T04:34:00,3.8,南,6.6,南,23.3,92.6,0,3.5,5,13
276,2021-05-17T04:35:00,3.8,南,6.6,南,23.3,92.7,0,3,5,13
277,2021-05-17T04:36:00,3.8,南,6.6,南,23.3,92.6,0,3,5,13
278,2021-05-17T04:37:00,3.9,南,6.6,南,23.3,92.6,0,3,5,13
279,2021-05-17T04:38:00,3.8,南,6.6,南,23.3,92.6,0,3,5,13
280,2021-05-17T04:39:00,3.7,南,5.8,南,23.3,92.4,0,3,5,13
281,2021-05-17T04:40:00,3.6,南,5.8,南,23.3,92.1,0,2.5,5,13
282,2021-05-17T04:41:00,3.5,南,5.9,南南西,23.3,92,0,2.5,5,13
283,2021-05-17T04:42:00,3.5,南,5.9,南南西,23.3,92,0,2.5,5,13
284,2021-05-17T04:43:00,3.5,南,5.9,南南西,23.3,92.1,0,2.5,5,13
285,2021-05-17T04:44:00,3.6,南,5.9,南南西,23.3,92.2,0,2.5,5,13
286,2021-05-17T04:45:00,3.6,南,5.9,南南西,23.3,92.1,0,2,5,13
287,2021-05-17T04:46:00,3.7,南,5.9,南南西,23.3,92,0,2,5,13
288,2021-05-17T04:47:00,3.7,南,5.9,南南西,23.3,92,0,2,5,13
289,2021-05-17T04:48:00,3.7,南,5.9,南南西,23.4,92,0,2,5,13
290,2021-05-17T04:49:00,3.6,南,5.9,南南西,23.2,91.8,0.5,2.5,5.5,13.5
291,2021-05-17T04:50:00,3.6,南,5.9,南南西,23,91.8,1,3,6,14
292,2021-05-17T04:51:00,3.5,南,5.7,南南西,23.1,92.3,1,3,6,14
293,2021-05-17T04:52:00,3.4,南,5.5,南南東,23.1,92.6,1,3,6,14
294,2021-05-17T04:53:00,3.3,南,5.5,南南東,23,92.9,1,3,6,14
295,2021-05-17T04:54:00,3.3,南南東,5.5,南南東,23,93.1,1.5,3.5,6.5,14.5
296,2021-05-17T04:55:00,3.3,南南東,5.5,南南東,23.1,93.5,1.5,3.5,6.5,14.5
297,2021-05-17T04:56:00,3.4,南南東,5.9,南,23.1,93.6,1.5,3,6.5,14.5
298,2021-05-17T04:57:00,3.4,南南東,5.9,南,23,93.4,1.5,3,6.5,14.5
299,2021-05-17T04:58:00,3.4,南南東,5.9,南,23,93.5,1.5,3,6.5,14.5
300,2021-05-17T04:59:00,3.6,南南東,7.5,南東,23,93.7,1.5,3.5,7,15
301,2021-05-17T05:00:00,3.7,南,7.5,南東,23.1,93.8,1,3.5,7,15
302,2021-05-17T05:01:00,3.7,南南東,7.5,南東,23,93.6,1,3.5,7,15
303,2021-05-17T05:02:00,3.7,南,7.5,南東,23,93.5,1,3.5,7,15
304,2021-05-17T05:03:00,3.7,南南東,7.5,南東,23,93.6,1.5,3.5,7.5,15.5
305,2021-05-17T05:04:00,3.6,南南東,7.5,南東,22.9,93.7,1,3.5,7.5,15.5
306,2021-05-17T05:05:00,3.5,南南東,7.5,南東,22.9,93.9,1,3.5,7.5,15.5
307,2021-05-17T05:06:00,3.3,南南東,7.5,南東,22.9,94.1,1,3.5,7.5,15.5
308,2021-05-17T05:07:00,3.2,南南東,7.5,南東,22.8,94.3,1.5,4,8,16
309,2021-05-17T05:08:00,3.2,南南東,7.5,南東,22.8,94.4,1.5,4,8,16
310,2021-05-17T05:09:00,3.2,南南東,5.7,南南西,22.9,94.7,1.5,4,8.5,16.5
311,2021-05-17T05:10:00,3.2,南南東,5.7,南南西,22.8,94.8,1.5,4,8.5,16.5
312,2021-05-17T05:11:00,3.3,南,5.7,南南西,22.8,94.7,1.5,4,8.5,16.5
313,2021-05-17T05:12:00,3.5,南,5.8,南,22.8,94.9,2,4.5,9,17
314,2021-05-17T05:13:00,3.6,南,5.8,南,22.8,95,2,5,9.5,17.5
315,2021-05-17T05:14:00,3.7,南,5.8,南,22.8,95,2,5,9.5,17.5
316,2021-05-17T05:15:00,3.8,南,5.8,南,22.8,95.1,2,5,9.5,17.5
317,2021-05-17T05:16:00,3.8,南,5.8,南,22.8,95.1,2.5,5.5,10,18
318,2021-05-17T05:17:00,3.9,南,5.8,南,22.7,95.1,2,5.5,10,18
319,2021-05-17T05:18:00,3.9,南,5.8,南,22.7,95.2,2,5.5,10,18
320,2021-05-17T05:19:00,3.8,南,5.8,南,22.6,95.3,1.5,5.5,10,18
321,2021-05-17T05:20:00,3.8,南,5.8,南,22.7,95.4,1.5,5.5,10,18
322,2021-05-17T05:21:00,,"",,"",,,,,,
323,2021-05-17T05:22:00,3.9,南,6.9,南南西,22.7,95.5,1.5,6,10.5,18.5
324,2021-05-17T05:23:00,4,南,6.9,南南西,22.8,95.6,1,5.5,10.5,18.5
325,2021-05-17T05:24:00,4,南,6.9,南南西,22.8,95.5,1,5.5,10.5,18.5
326,2021-05-17T05:25:00,4.1,南,6.9,南南西,22.8,95.5,1,5.5,10.5,18.5
327,2021-05-17T05:26:00,4.2,南,6.9,南南西,22.8,95.5,1,6,11,19
328,2021-05-17T05:27:00,4.4,南,7.4,南,22.9,95.4,1,6,11,19
329,2021-05-17T05:28:00,4.4,南,7.4,南,22.9,95.3,1,6,11,19
330,2021-05-17T05:29:00,4.4,南,7.4,南,22.8,95.2,1.5,6.5,11.5,19.5
331,2021-05-17T05:30:00,4.3,南,7.4,南,22.8,95.2,1.5,6.5,11.5,19.5
332,2021-05-17T05:31:00,4.2,南,7.4,南,22.8,95.1,2,7,12,20
333,2021-05-17T05:32:00,3.9,南,7.4,南,22.7,95.1,1.5,7,12,20
334,2021-05-17T05:33:00,3.8,南南東,7.4,南,22.7,95.1,2,7.5,12.5,20.5
335,2021-05-17T05:34:00,3.9,南南東,7.4,南,22.7,95.2,2,7.5,12.5,20.5
336,2021-05-17T05:35:00,3.9,南南東,7.4,南,22.7,95.3,2.5,8,13,21
337,2021-05-17T05:36:00,3.8,南南東,7.4,南,22.7,95.3,2,8,13,21
338,2021-05-17T05:37:00,3.6,南南東,6.9,南東,22.6,95.3,2,8,13,21
339,2021-05-17T05:38:00,3.5,南南東,6.9,南東,22.6,95.4,2,8,13,21
340,2021-05-17T05:39:00,3.4,南,6.9,南東,22.5,95.4,2,8.5,13.5,21.5
341,2021-05-17T05:40:00,3.4,南,6.9,南東,22.5,95.5,2,8.5,13.5,21.5
342,2021-05-17T05:41:00,3.4,南,6.9,南東,22.5,95.6,1.5,8.5,13.5,21.5
343,2021-05-17T05:42:00,3.5,南,6.9,南東,22.6,95.7,1.5,8.5,13.5,21.5
344,2021-05-17T05:43:00,3.5,南,6.9,南東,22.6,95.7,1,8.5,13.5,21.5
345,2021-05-17T05:44:00,3.4,南,6.1,南,22.5,95.7,1,8.5,13.5,21.5
346,2021-05-17T05:45:00,3.4,南,5.3,南南西,22.5,95.7,0.5,8.5,13.5,21.5
347,2021-05-17T05:46:00,3.3,南,5.3,南南西,22.5,95.7,0.5,8.5,13.5,21.5
348,2021-05-17T05:47:00,3.3,南,5.3,南南西,22.5,95.8,0.5,8.5,13.5,21.5
349,2021-05-17T05:48:00,3.3,南,5.3,南南西,22.6,95.8,0.5,8.5,13.5,21.5
350,2021-05-17T05:49:00,3.4,南,5.3,南南西,22.5,95.8,0,8,13.5,21.5
351,2021-05-17T05:50:00,3.4,南,5.3,南南西,22.5,95.8,0,7.5,13.5,21.5
352,2021-05-17T05:51:00,3.4,南,5.3,南南西,22.5,95.8,0,7.5,13.5,21.5
353,2021-05-17T05:52:00,3.3,南,5.3,南南西,22.5,95.8,0,7.5,13.5,21.5
354,2021-05-17T05:53:00,3.2,南,5.3,南南西,22.5,95.9,0,7.5,13.5,21.5
355,2021-05-17T05:54:00,3.1,南,5.3,南南西,22.5,95.9,0,7,13.5,21.5
356,2021-05-17T05:55:00,3,南,4.5,南南西,22.5,95.9,0,7,13.5,21.5
357,2021-05-17T05:56:00,3,南,4.5,南南西,22.6,95.9,0,7,13.5,21.5
358,2021-05-17T05:57:00,3.1,南,5.8,南南東,22.6,95.9,0,7,13.5,21.5
359,2021-05-17T05:58:00,3.1,南,6,南南東,22.7,96,0,7,13.5,21.5
360,2021-05-17T05:59:00,3,南,6,南南東,22.7,95.8,0,6.5,13.5,21.5
361,2021-05-17T06:00:00,3,南,6,南南東,22.8,95.7,0,6.5,13.5,21.5
362,2021-05-17T06:01:00,3,南,6,南南東,22.8,95.6,0.5,7,14,22
363,2021-05-17T06:02:00,2.8,南,6,南南東,22.8,95.4,0.5,7,14,22
364,2021-05-17T06:03:00,2.8,南,6,南南東,22.8,95.3,0.5,6.5,14,22
365,2021-05-17T06:04:00,2.7,南,6,南南東,22.8,95.2,0.5,6.5,14,22
366,2021-05-17T06:05:00,2.7,南,6,南南東,22.8,95.2,0.5,6.5,14,22
367,2021-05-17T06:06:00,2.6,南,6,南南東,22.7,95,0.5,6.5,14,22
368,2021-05-17T06:07:00,2.4,南,6,南南東,22.6,94.9,0.5,6,14,22
369,2021-05-17T06:08:00,2.2,南南西,3.8,南南西,22.5,95,0.5,6,14,22
370,2021-05-17T06:09:00,2.1,南南西,3.7,南,22.4,95.2,0.5,5.5,14,22
371,2021-05-17T06:10:00,2,南南西,3.4,南,22.6,95.4,0.5,5.5,14,22
372,2021-05-17T06:11:00,1.9,南南西,3.2,南南西,22.6,95.5,0.5,6,14.5,22.5
373,2021-05-17T06:12:00,1.8,南南西,3.2,南南西,22.6,95.5,0.5,5.5,14.5,22.5
374,2021-05-17T06:13:00,1.9,南南西,3.6,南西,22.6,95.5,0.5,5,14.5,22.5
375,2021-05-17T06:14:00,1.9,南南西,3.6,南西,22.6,95.4,0.5,5,14.5,22.5
376,2021-05-17T06:15:00,1.8,南南西,3.6,南西,22.6,95.4,0.5,5,14.5,22.5
377,2021-05-17T06:16:00,1.7,南,3.6,南西,22.6,95.4,0.5,4.5,14.5,22.5
378,2021-05-17T06:17:00,1.7,南,3.6,南西,22.6,95.4,0.5,4.5,14.5,22.5
379,2021-05-17T06:18:00,1.7,南,3.6,南西,22.6,95.5,0.5,4.5,14.5,22.5
380,2021-05-17T06:19:00,1.9,南,4.4,南南西,22.7,95.5,0.5,4.5,14.5,22.5
381,2021-05-17T06:20:00,2,南,5.1,南,22.9,95.6,0.5,4.5,14.5,22.5
382,2021-05-17T06:21:00,2.3,南,6.1,南南西,23.1,95.5,0,4.5,14.5,22.5
383,2021-05-17T06:22:00,2.6,南,6.2,南,23.1,95.2,0,4,14.5,22.5
384,2021-05-17T06:23:00,2.7,南,6.5,南南西,23.2,94.5,0,4,14.5,22.5
385,2021-05-17T06:24:00,2.8,南,6.5,南南西,23.3,93.7,0,4,14.5,22.5
386,2021-05-17T06:25:00,3.2,南,6.5,南南西,23.3,93,0,4,14.5,22.5
387,2021-05-17T06:26:00,3.5,南,7.1,南南西,23.4,92.4,0,3.5,14.5,22.5
388,2021-05-17T06:27:00,3.7,南,7.1,南南西,23.5,91.5,0,3.5,14.5,22.5
389,2021-05-17T06:28:00,3.8,南,7.1,南南西,23.4,90.4,0,3.5,14.5,22.5
390,2021-05-17T06:29:00,4,南,7.8,南南西,23.4,90.2,0,3,14.5,22.5
391,2021-05-17T06:30:00,4.3,南,7.9,南南西,23.4,89.9,0,3,14.5,22.5
392,2021-05-17T06:31:00,4.2,南,7.9,南南西,23.3,89.7,0,2.5,14.5,22.5
393,2021-05-17T06:32:00,4,南,7.9,南南西,23.2,89.7,0,2.5,14.5,22.5
394,2021-05-17T06:33:00,3.9,南,7.9,南南西,23.1,90.1,0,2,14.5,22.5
395,2021-05-17T06:34:00,3.9,南,7.9,南南西,23.2,90.7,0,2,14.5,22.5
396,2021-05-17T06:35:00,3.9,南,7.9,南南西,23.4,91,0,1.5,14.5,22.5
397,2021-05-17T06:36:00,3.7,南,7.9,南南西,23.4,90.5,0,1.5,14.5,22.5
398,2021-05-17T06:37:00,3.7,南,7.9,南南西,23.3,89.9,0,1.5,14.5,22.5
399,2021-05-17T06:38:00,3.7,南,7.9,南南西,23.2,89.9,0,1.5,14.5,22.5
400,2021-05-17T06:39:00,3.4,南,7.9,南南西,23.2,90,0,1,14.5,22.5
401,2021-05-17T06:40:00,3.1,南,4.9,南,23.1,90.3,0,1,14.5,22.5
402,2021-05-17T06:41:00,3.1,南,4.9,南,23.1,90.6,0.5,1.5,15,23
403,2021-05-17T06:42:00,3.1,南,4.9,南,23.1,90.9,0.5,1.5,15,23
404,2021-05-17T06:43:00,3.2,南,6,南,23.2,91.2,0.5,1.5,15,23
405,2021-05-17T06:44:00,3.2,南,6,南,23.2,91.3,0.5,1.5,15,23
406,2021-05-17T06:45:00,3.1,南,6,南,23.3,91,0.5,1.5,15,23
407,2021-05-17T06:46:00,3.1,南,6,南,23.2,90.8,0.5,1.5,15,23